EW6851 Weather Reports


time (UTC)temp
C
wind
direction
speed
KPH
gust
KPH
rain 1hr
cm
rain 24hr
cm
rain mn
cm
humidity
%
barometer
mb
20260504050630 13 119 0.0 3.2 0.00 0.00 0.00 59 1019.9
20260504050130 13 192 1.6 6.4 0.00 0.00 0.00 58 1019.9
20260504045627 13 215 6.4 11.3 0.00 0.00 0.00 58 1019.8
20260504045130 13 158 3.2 9.7 0.00 0.00 0.00 58 1019.8
20260504044627 13 144 4.8 8.0 0.00 0.00 0.00 58 1019.8
20260504044127 13 145 4.8 6.4 0.00 0.00 0.00 58 1019.8
20260504043633 13 175 6.4 6.4 0.00 0.00 0.00 58 1019.7
20260504043127 13 207 1.6 9.7 0.00 0.00 0.00 59 1019.7
20260504042633 12 154 1.6 9.7 0.00 0.00 0.00 59 1019.7
20260504042130 12 178 0.0 9.7 0.00 0.00 0.00 59 1019.6
20260504041630 12 114 3.2 6.4 0.00 0.00 0.00 59 1019.6
20260504041127 12 165 0.0 4.8 0.00 0.00 0.00 59 1019.6
20260504040627 12 185 3.2 8.0 0.00 0.00 0.00 59 1019.6
20260504040127 12 149 1.6 9.7 0.00 0.00 0.00 59 1019.5
20260504035627 12 141 0.0 9.7 0.00 0.00 0.00 59 1019.4
20260504035127 12 157 3.2 11.3 0.00 0.00 0.00 59 1019.5
20260504034633 12 162 4.8 8.0 0.00 0.00 0.00 59 1019.5
20260504034128 12 140 8.0 9.7 0.00 0.00 0.00 59 1019.5
20260504033627 12 149 1.6 8.0 0.00 0.00 0.00 59 1019.5
20260504033127 12 138 6.4 8.0 0.00 0.00 0.00 59 1019.6
20260504032634 12 144 4.8 9.7 0.00 0.00 0.00 59 1019.6
20260504032133 12 156 3.2 9.7 0.00 0.00 0.00 59 1019.5
20260504031630 12 147 1.6 11.3 0.00 0.00 0.00 59 1019.6
20260504031127 12 148 4.8 8.0 0.00 0.00 0.00 59 1019.6
20260504030627 12 128 6.4 12.9 0.00 0.00 0.00 60 1019.6
20260504030127 12 161 4.8 9.7 0.00 0.00 0.00 60 1019.6
20260504025630 12 126 8.0 11.3 0.00 0.00 0.00 60 1019.7
20260504025127 12 166 0.0 8.0 0.00 0.00 0.00 60 1019.7
20260504024636 12 155 0.0 11.3 0.00 0.00 0.00 60 1019.7
20260504024130 12 167 0.0 11.3 0.00 0.00 0.00 60 1019.8
20260504023628 12 156 0.0 11.3 0.00 0.00 0.00 60 1019.8
20260504023127 12 154 1.6 9.7 0.00 0.00 0.00 60 1019.8
20260504022627 12 168 3.2 11.3 0.00 0.00 0.00 60 1019.8
20260504022127 12 130 4.8 8.0 0.00 0.00 0.00 60 1019.8
20260504021627 12 170 0.0 8.0 0.00 0.00 0.00 60 1019.8
20260504021130 12 125 1.6 6.4 0.00 0.00 0.00 60 1019.8
20260504020630 12 148 4.8 8.0 0.00 0.00 0.00 60 1019.7
20260504020125 12 166 1.6 6.4 0.00 0.00 0.00 60 1019.7
20260504015631 12 114 4.8 8.0 0.00 0.00 0.00 60 1019.6
20260504015124 12 162 4.8 8.0 0.00 0.00 0.00 60 1019.6
20260504014625 12 190 4.8 8.0 0.00 0.00 0.00 60 1019.5
20260504014128 12 164 1.6 8.0 0.00 0.00 0.00 60 1019.5
20260504013625 12 159 1.6 9.7 0.00 0.00 0.00 60 1019.4
20260504013131 12 176 0.0 8.0 0.00 0.00 0.00 60 1019.4
20260504012628 13 157 3.2 9.7 0.00 0.00 0.00 60 1019.4
20260504012125 13 137 4.8 6.4 0.00 0.00 0.00 60 1019.4
20260504011625 13 120 0.0 9.7 0.00 0.00 0.00 60 1019.5
20260504011125 13 140 9.7 11.3 0.00 0.00 0.00 60 1019.5
20260504010625 13 152 0.0 12.9 0.00 0.00 0.00 60 1019.6
20260504010128 12 143 0.0 12.9 0.00 0.00 0.00 60 1019.7
20260504005628 12 136 8.0 11.3 0.00 0.00 0.00 60 1019.7
20260504005125 12 156 0.0 9.7 0.00 0.00 0.00 60 1019.8
20260504004631 13 143 1.6 9.7 0.00 0.00 0.00 61 1019.8
20260504004125 13 161 0.0 11.3 0.00 0.00 0.00 61 1019.7
20260504003625 13 137 4.8 8.0 0.00 0.00 0.00 61 1019.8
20260504003125 13 169 4.8 9.7 0.00 0.00 0.00 61 1019.8
20260504002628 13 134 1.6 8.0 0.00 0.00 0.00 62 1019.8
20260504002128 12 136 4.8 8.0 0.00 0.00 0.00 62 1019.8
20260504001625 12 152 1.6 11.3 0.00 0.00 0.00 63 1019.8
20260504001131 13 157 4.8 9.7 0.00 0.00 0.00 63 1019.9
20260504000625 13 175 6.4 8.0 0.00 0.00 0.00 63 1019.9
20260504000128 13 150 3.2 9.7 0.00 0.00 0.00 63 1020.0
20260503235625 13 161 3.2 11.3 0.00 0.00 0.00 63 1020.0
20260503235128 13 167 9.7 11.3 0.00 0.00 0.00 63 1020.0
20260503234625 13 153 9.7 9.7 0.00 0.00 0.00 63 1020.1
20260503234126 13 152 6.4 8.0 0.00 0.00 0.00 63 1020.1
20260503233625 13 132 1.6 6.4 0.00 0.00 0.00 64 1020.2
20260503233125 13 157 8.0 9.7 0.00 0.00 0.00 64 1020.2
20260503232628 13 123 3.2 8.0 0.00 0.00 0.00 64 1020.2
20260503232128 13 178 0.0 8.0 0.00 0.00 0.00 65 1020.2
20260503231628 13 182 1.6 9.7 0.00 0.00 0.00 65 1020.2
20260503231128 13 136 6.4 11.3 0.00 0.00 0.00 66 1020.2
20260503230628 13 161 0.0 11.3 0.00 0.00 0.00 66 1020.3
20260503230125 13 119 8.0 11.3 0.00 0.00 0.00 66 1020.4
20260503225631 13 138 3.2 11.3 0.00 0.00 0.00 66 1020.5
20260503225128 13 202 0.0 9.7 0.00 0.00 0.00 66 1020.5
20260503224625 13 170 4.8 9.7 0.00 0.00 0.00 67 1020.6
20260503224125 13 150 4.8 9.7 0.00 0.00 0.00 67 1020.6
20260503223625 13 171 3.2 6.4 0.00 0.00 0.00 67 1020.6
20260503223125 13 150 6.4 8.0 0.00 0.00 0.00 68 1020.6
20260503222628 13 166 4.8 8.0 0.00 0.00 0.00 68 1020.7
20260503222128 13 161 0.0 9.7 0.00 0.00 0.00 68 1020.7
20260503221625 13 164 1.6 9.7 0.00 0.00 0.00 68 1020.6
20260503221125 13 128 6.4 11.3 0.00 0.00 0.00 69 1020.6
20260503220632 13 161 6.4 9.7 0.00 0.00 0.00 69 1020.6
20260503220128 13 163 0.0 6.4 0.00 0.00 0.00 69 1020.5
20260503215625 13 161 4.8 9.7 0.00 0.00 0.00 69 1020.5
20260503215125 13 112 1.6 11.3 0.00 0.00 0.00 70 1020.5
20260503214628 13 129 4.8 9.7 0.00 0.00 0.00 70 1020.6
20260503214125 14 157 6.4 9.7 0.00 0.00 0.00 70 1020.5
20260503213631 14 165 6.4 11.3 0.00 0.00 0.00 70 1020.5
20260503213134 14 116 0.0 9.7 0.00 0.00 0.00 70 1020.5
20260503212628 14 161 1.6 9.7 0.00 0.00 0.00 71 1020.5
20260503212128 14 167 8.0 11.3 0.00 0.00 0.00 70 1020.5
20260503211625 14 165 6.4 9.7 0.00 0.00 0.00 71 1020.6
20260503211125 14 159 4.8 11.3 0.00 0.00 0.00 71 1020.6
20260503210625 14 150 8.0 11.3 0.00 0.00 0.00 71 1020.7
20260503210131 14 167 3.2 11.3 0.00 0.00 0.00 71 1020.7
20260503205629 14 127 3.2 11.3 0.00 0.00 0.00 72 1020.7
20260503205128 14 169 3.2 8.0 0.00 0.00 0.00 72 1020.7
20260503204625 14 156 3.2 8.0 0.00 0.00 0.00 73 1020.7
20260503204134 14 132 4.8 9.7 0.00 0.00 0.00 73 1020.7
20260503203628 14 150 6.4 9.7 0.00 0.00 0.00 73 1020.7
20260503203125 14 144 6.4 11.3 0.00 0.00 0.00 74 1020.7
20260503202628 14 130 4.8 9.7 0.00 0.00 0.00 74 1020.7
20260503202125 15 123 8.0 11.3 0.00 0.00 0.00 73 1020.7
20260503201625 15 163 4.8 9.7 0.00 0.00 0.00 73 1020.7
20260503201129 15 148 6.4 11.3 0.00 0.00 0.00 73 1020.6
20260503200631 15 178 3.2 8.0 0.00 0.00 0.00 73 1020.6
20260503200125 15 173 4.8 9.7 0.00 0.00 0.00 73 1020.6
20260503195628 15 130 3.2 8.0 0.00 0.00 0.00 73 1020.6
20260503195125 15 145 4.8 11.3 0.00 0.00 0.00 73 1020.6
20260503194631 15 119 4.8 12.9 0.00 0.00 0.00 73 1020.6
20260503194125 15 150 1.6 12.9 0.00 0.00 0.00 73 1020.6
20260503193625 15 82 1.6 9.7 0.00 0.00 0.00 74 1020.6
20260503193128 15 138 0.0 9.7 0.00 0.00 0.00 74 1020.6
20260503192629 15 107 3.2 8.0 0.00 0.00 0.00 74 1020.5
20260503192131 15 156 3.2 12.9 0.00 0.00 0.00 74 1020.5
20260503191625 15 157 4.8 11.3 0.00 0.00 0.00 76 1020.5
20260503191125 15 124 0.0 9.7 0.00 0.00 0.00 76 1020.5
20260503190625 16 127 8.0 11.3 0.00 0.00 0.00 77 1020.5
20260503190131 16 167 3.2 9.7 0.00 0.00 0.00 77 1020.5
20260503185628 16 159 1.6 8.0 0.00 0.00 0.00 77 1020.4
20260503185128 16 175 0.0 4.8 0.00 0.00 0.00 77 1020.3
20260503184625 16 138 0.0 6.4 0.00 0.00 0.00 76 1020.2
20260503184125 17 146 6.4 8.0 0.00 0.00 0.00 75 1020.1
20260503183625 17 179 3.2 4.8 0.00 0.00 0.00 74 1020.1
20260503183128 17 147 0.0 0.0 0.00 0.00 0.00 74 1020.0
20260503182631 17 192 0.0 0.0 0.00 0.00 0.00 74 1020.0
20260503182128 17 192 0.0 3.2 0.00 0.00 0.00 73 1019.9
20260503181626 17 302 0.0 3.2 0.00 0.00 0.00 73 1019.9
20260503181128 17 302 0.0 0.0 0.00 0.00 0.00 72 1019.9
20260503180628 17 316 0.0 3.2 0.00 0.00 0.00 72 1019.8
20260503180125 17 316 0.0 4.8 0.00 0.00 0.00 71 1019.8
20260503175631 17 316 0.0 4.8 0.00 0.00 0.00 70 1019.7
20260503175128 17 325 1.6 3.2 0.00 0.00 0.00 70 1019.6
20260503174625 18 333 0.0 4.8 0.00 0.00 0.00 70 1019.6
20260503174128 18 341 4.8 6.4 0.00 0.00 0.00 70 1019.6
20260503173631 18 279 3.2 6.4 0.00 0.00 0.00 69 1019.7
20260503173128 18 288 0.0 8.0 0.00 0.00 0.00 69 1019.7
20260503172631 18 294 6.4 6.4 0.00 0.00 0.00 68 1019.7
20260503172128 18 263 3.2 8.0 0.00 0.00 0.00 68 1019.7
20260503171625 19 300 4.8 8.0 0.00 0.00 0.00 67 1019.6
20260503171128 19 296 4.8 8.0 0.00 0.00 0.00 67 1019.6
20260503170634 19 284 6.4 9.7 0.00 0.00 0.00 67 1019.6
20260503170125 19 234 1.6 8.0 0.00 0.00 0.00 67 1019.5
20260503160125 20 293 3.2 12.9 0.00 0.00 0.00 66 1019.7
20260503150625 20 255 8.0 9.7 0.00 0.00 0.00 63 1019.9
20260503150125 20 251 1.6 12.9 0.00 0.00 0.00 63 1019.9
20260503140128 20 231 0.0 16.1 0.00 0.00 0.00 64 1020.3
20260503131125 20 279 11.3 22.5 0.00 0.00 0.00 60 1020.5
20260503130635 20 271 11.3 19.3 0.00 0.00 0.00 62 1020.6
20260503130132 20 30 3.2 14.5 0.00 0.00 0.00 61 1020.5
20260503120129 20 260 16.1 22.5 0.00 0.00 0.00 61 1021.0
20260503110626 20 284 8.0 16.1 0.00 0.00 0.00 61 1021.2
20260503110126 20 266 6.4 16.1 0.00 0.00 0.00 61 1021.3
20260503100126 19 273 16.1 27.4 0.00 0.00 0.00 61 1021.7
20260503090129 19 292 9.7 22.5 0.00 0.00 0.00 57 1021.8
20260503081626 19 269 8.0 14.5 0.00 0.00 0.00 55 1021.6
20260503081129 18 263 0.0 12.9 0.00 0.00 0.00 56 1021.6
20260503080629 18 277 9.7 16.1 0.00 0.00 0.00 55 1021.6
20260503080133 18 311 6.4 16.1 0.00 0.00 0.00 55 1021.5
20260503072632 18 342 6.4 9.7 0.00 0.00 0.00 57 1021.4
20260503072126 18 256 6.4 12.9 0.00 0.00 0.00 57 1021.4
20260503071632 17 236 1.6 14.5 0.00 0.00 0.00 57 1021.5
20260503071126 17 232 8.0 11.3 0.00 0.00 0.00 58 1021.4
20260503070626 17 228 3.2 11.3 0.00 0.00 0.00 57 1021.4
20260503070126 17 298 4.8 12.9 0.00 0.00 0.00 58 1021.4
20260503060129 15 134 3.2 6.4 0.00 0.00 0.00 68 1021.3
20260503054626 15 161 6.4 6.4 0.00 0.00 0.00 69 1021.3
20260503054129 15 144 0.0 4.8 0.00 0.00 0.00 70 1021.2
20260503053629 14 196 0.0 3.2 0.00 0.00 0.00 71 1021.2
20260503053129 14 169 0.0 6.4 0.00 0.00 0.00 71 1021.2
20260503052626 13 173 0.0 6.4 0.00 0.00 0.00 72 1021.1
20260503052129 13 171 0.0 4.8 0.00 0.00 0.00 73 1021.1